Change the Weather History Date:

Sunday, March 9, 2014

  Actual Average Record
Temperature  
Mean Temperature 44 °F 44 °F  
Max Temperature 59 °F 53 °F 80 °F (1925)
Min Temperature 29 °F 34 °F 9 °F (1932)
Degree Days  
Heating Degree Days 21 21  
Month to date heating degree days 294 206  
Since 1 July heating degree days 4331 3804  
Cooling Degree Days 0 0  
Month to date cooling degree days 0 0  
Year to date cooling degree days 0 0  
Moisture  
Dew Point 27 °F    
Average Humidity 53    
Maximum Humidity 78    
Minimum Humidity 28    
Precipitation  
Precipitation 0.00 in 0.09 in 1.33 in (1964)
Month to date precipitation 0.32 0.81  
Year to date precipitation 3.47 5.45  
Snow  
Snow 0.00 in 0.10 in 10.00 in (1958)
Month to date snowfall 1.5 1.0  
Since 1 July snowfall 28.7 16.0  
Snow Depth 0.00 in    
Sea Level Pressure  
Sea Level Pressure 30.21 in    
Wind  
Wind Speed 7 mph (SW)    
Max Wind Speed 16 mph    
Max Gust Speed 23 mph    
Visibility 7 miles    
Events      
T = Trace of Precipitation, MM = Missing Value Source: NWS Daily Summary

Daily Weather History Graph

Daily Weather History Graph

Search for Another Location

Airport or City:

Trip Planner

Search our weather history database for the weather conditions in past years. The results will help you decide how hot, cold, wet, or windy it might be!

Date:

Astronomy

Mar. 09, 2014 Rise Set
Actual Time 7:21 AM CDT 7:02 PM CDT
Civil Twilight 6:55 AM CDT 7:29 PM CDT
Nautical Twilight 6:24 AM CDT 7:59 PM CDT
Astronomical Twilight 5:53 AM CDT 8:31 PM CDT
Moon 12:58 PM CDT (3/9) 3:45 AM CDT (3/9)
Length of Visible Light 12h 33m
Length of Day
11h 40m
First Quarter, 61% of the Moon is Illuminated
Mar 9
First Quarter
Mar 16
Full
Mar 23
Last Quarter
Mar 30
New
Apr 7
First Quarter

Hourly Weather History & Observations

Time (CDT) Temp. Windchill Dew Point Humidity Pressure Visibility Wind Dir Wind Speed Gust Speed Precip Events Conditions
12:51 AM 37.0 °F 33.3 °F 30.0 °F 76% 30.33 in 6.0 mi NNW 4.6 mph - N/A   Haze
1:51 AM 37.0 °F 32.4 °F 27.0 °F 67% 30.33 in 6.0 mi NW 5.8 mph - N/A   Haze
3:51 AM 35.1 °F 30.1 °F 27.0 °F 72% 30.33 in 6.0 mi North 5.8 mph - N/A   Haze
4:40 AM 32.0 °F - 26.6 °F 80% 30.31 in 5.0 mi Calm Calm - N/A   Haze
4:51 AM 33.1 °F 30.0 °F 26.1 °F 75% 30.34 in 5.0 mi NW 3.5 mph - N/A   Haze
5:51 AM 30.9 °F - 25.0 °F 79% 30.33 in 5.0 mi Calm Calm - N/A   Haze
6:51 AM 30.0 °F 26.5 °F 25.0 °F 82% 30.33 in 5.0 mi WSW 3.5 mph - N/A   Haze
7:13 AM 30.2 °F - 26.6 °F 86% 30.31 in 4.0 mi Calm Calm - N/A   Scattered Clouds
7:23 AM 28.4 °F - 24.8 °F 86% 30.31 in 2.0 mi Calm Calm - N/A   Scattered Clouds
7:51 AM 30.0 °F - 25.0 °F 82% 30.35 in 2.0 mi Calm Calm - N/A   Haze
8:51 AM 35.1 °F 32.2 °F 28.9 °F 78% 30.35 in 2.5 mi SW 3.5 mph - N/A   Haze
9:16 AM 37.4 °F 33.8 °F 28.4 °F 70% 30.33 in 4.0 mi SSW 4.6 mph - N/A   Haze
9:31 AM 37.4 °F 32.1 °F 26.6 °F 65% 30.32 in 6.0 mi SSW 6.9 mph - N/A   Haze
9:51 AM 39.0 °F 34.8 °F 26.1 °F 60% 30.34 in 7.0 mi SW 5.8 mph - N/A   Scattered Clouds
10:51 AM 42.1 °F 37.1 °F 26.1 °F 53% 30.34 in 7.0 mi WSW 8.1 mph - N/A   Scattered Clouds
11:51 AM 45.0 °F 41.8 °F 27.0 °F 49% 30.30 in 7.0 mi Variable 5.8 mph - N/A   Partly Cloudy
12:51 PM 48.0 °F - 25.0 °F 41% 30.26 in 8.0 mi SSW 9.2 mph - N/A   Partly Cloudy
1:51 PM 50.0 °F - 25.0 °F 38% 30.21 in 8.0 mi SSW 8.1 mph - N/A   Partly Cloudy
2:51 PM 55.0 °F - 26.1 °F 33% 30.16 in 8.0 mi SSW 8.1 mph - N/A   Partly Cloudy
3:51 PM 57.0 °F - 25.0 °F 29% 30.13 in 8.0 mi SSW 9.2 mph - N/A   Partly Cloudy
4:51 PM 57.9 °F - 25.0 °F 28% 30.09 in 9.0 mi SW 12.7 mph - N/A   Partly Cloudy
5:51 PM 59.0 °F - 26.1 °F 28% 30.06 in 10.0 mi SSW 12.7 mph - N/A   Partly Cloudy
6:51 PM 57.0 °F - 27.0 °F 32% 30.06 in 10.0 mi SSW 6.9 mph - N/A   Partly Cloudy
7:51 PM 54.0 °F - 28.0 °F 37% 30.05 in 10.0 mi South 4.6 mph - N/A   Partly Cloudy
8:51 PM 51.1 °F - 28.0 °F 41% 30.04 in 10.0 mi SSW 3.5 mph - N/A   Clear
9:51 PM 50.0 °F - 28.0 °F 43% 30.04 in 10.0 mi SSW 5.8 mph - N/A   Clear
10:51 PM 51.1 °F - 28.9 °F 43% 30.03 in 10.0 mi SW 10.4 mph - N/A   Clear
11:51 PM 50.0 °F - 30.0 °F 46% 30.02 in 10.0 mi WSW 11.5 mph - N/A   Clear
12:51 AM 46.0 °F 42.5 °F 30.0 °F 54% 30.01 in 10.0 mi SW 6.9 mph - N/A   Partly Cloudy